FW8073 Weather Reports


time (UTC)temp
C
wind
direction
speed
KPH
gust
KPH
rain 1hr
cm
rain 24hr
cm
rain mn
cm
humidity
%
barometer
mb
20260503203529 15 235 12.9 38.6 0.00 0.00 0.00 54 1010.4
20260503203026 15 248 27.4 32.2 0.00 0.00 0.00 54 1010.6
20260503202524 15 251 11.3 14.5 0.00 0.00 0.00 51 1010.6
20260503202021 16 198 20.9 32.2 0.00 0.00 0.00 53 1010.7
20260503201520 16 265 22.5 38.6 0.00 0.00 0.00 51 1010.8
20260503201016 16 228 17.7 25.7 0.00 0.00 0.00 52 1010.6
20260503200512 15 224 20.9 38.6 0.00 0.00 0.00 52 1010.8
20260503200009 15 258 30.6 46.7 0.00 0.00 0.00 52 1010.9
20260503195507 15 253 24.1 29.0 0.00 0.00 0.00 54 1010.9
20260503195003 15 230 14.5 32.2 0.00 0.00 0.00 55 1011.0
20260503194501 15 250 17.7 41.8 0.00 0.00 0.00 51 1011.1
20260503193955 16 215 16.1 32.2 0.00 0.00 0.00 51 1011.1
20260503193451 15 242 24.1 35.4 0.00 0.00 0.00 50 1011.3
20260503192947 16 234 20.9 41.8 0.00 0.00 0.00 53 1011.4
20260503192443 15 269 35.4 46.7 0.00 0.00 0.00 49 1011.5
20260503191939 16 260 41.8 53.1 0.00 0.00 0.00 48 1011.3
20260503191437 16 241 35.4 43.5 0.00 0.00 0.00 50 1011.5
20260503190932 16 217 25.7 32.2 0.00 0.00 0.00 49 1011.7
20260503190431 15 282 19.3 46.7 0.00 0.00 0.00 51 1011.5
20260503185927 16 240 27.4 32.2 0.00 0.00 0.00 52 1011.5
20260503185424 16 275 33.8 41.8 0.00 0.00 0.00 50 1011.5
20260503184923 16 221 14.5 49.9 0.00 0.00 0.00 52 1011.7
20260503184420 16 203 24.1 41.8 0.00 0.00 0.00 51 1011.5
20260503183916 15 200 24.1 41.8 0.00 0.00 0.00 49 1011.6
20260503183413 15 249 32.2 43.5 0.00 0.00 0.00 49 1011.7
20260503182910 15 287 19.3 38.6 0.00 0.00 0.00 48 1012.0
20260503182409 15 206 14.5 25.7 0.00 0.00 0.00 51 1011.9
20260503181905 15 210 20.9 46.7 0.00 0.00 0.00 52 1011.9
20260503181403 15 230 17.7 32.2 0.00 0.00 0.00 50 1012.0
20260503180859 15 279 32.2 46.7 0.00 0.00 0.00 47 1012.2
20260503180357 15 278 30.6 49.9 0.00 0.00 0.00 49 1012.4
20260503175853 15 251 17.7 38.6 0.00 0.00 0.00 52 1012.3
20260503175351 15 264 22.5 32.2 0.00 0.00 0.00 51 1012.5
20260503174846 15 254 24.1 38.6 0.00 0.00 0.00 50 1012.6
20260503174345 15 238 33.8 56.3 0.00 0.00 0.00 47 1012.4
20260503173845 15 258 27.4 41.8 0.00 0.00 0.00 49 1012.6
20260503173342 15 225 19.3 41.8 0.00 0.00 0.00 47 1012.8
20260503172838 15 258 20.9 41.8 0.00 0.00 0.00 52 1012.7
20260503172336 14 238 32.2 41.8 0.00 0.00 0.00 50 1012.9
20260503171832 14 240 40.2 53.1 0.00 0.00 0.00 48 1012.9
20260503171329 15 271 37.0 46.7 0.00 0.00 0.00 49 1013.0
20260503170827 15 239 25.7 32.2 0.00 0.00 0.00 54 1013.0
20260503170323 14 262 29.0 41.8 0.00 0.00 0.00 52 1012.9
20260503150715 12 258 14.5 35.4 0.00 0.00 0.00 56 1014.2
20260503150211 12 246 19.3 35.4 0.00 0.00 0.00 59 1014.4
20260503140136 10 270 16.1 25.7 0.00 0.00 0.00 63 1014.5
20260503131105 9 279 32.2 35.4 0.00 0.00 0.00 64 1014.6
20260503130603 9 281 20.9 25.7 0.00 0.00 0.00 64 1014.5
20260503110453 2 228 1.6 3.2 0.00 0.00 0.00 82 1014.3
20260503090338 2 217 3.2 3.2 0.00 0.00 0.00 77 1014.8
20260503081306 1 219 3.2 3.2 0.00 0.00 0.00 82 1015.1
20260503080802 1 221 0.0 0.0 0.00 0.00 0.00 84 1015.2
20260503080259 1 221 0.0 0.0 0.00 0.00 0.00 83 1015.0
20260503072736 2 225 0.0 3.2 0.00 0.00 0.00 85 1015.1
20260503072232 2 223 3.2 3.2 0.00 0.00 0.00 85 1015.1
20260503071729 2 225 0.0 3.2 0.00 0.00 0.00 84 1015.1
20260503071226 2 228 1.6 3.2 0.00 0.00 0.00 86 1015.3
20260503070722 2 229 0.0 0.0 0.00 0.00 0.00 88 1015.4
20260503070221 2 229 0.0 0.0 0.00 0.00 0.00 89 1015.2
20260503060145 1 265 0.0 0.0 0.00 0.00 0.00 87 1015.6
20260503054632 1 265 0.0 0.0 0.00 0.00 0.00 89 1015.8
20260503054129 1 265 0.0 0.0 0.00 0.00 0.00 90 1015.9
20260503053627 2 265 0.0 0.0 0.00 0.00 0.00 90 1015.8
20260503053126 1 265 0.0 0.0 0.00 0.00 0.00 89 1015.9
20260503052622 1 266 0.0 0.0 0.00 0.00 0.00 89 1015.9
20260503052118 1 266 0.0 0.0 0.00 0.00 0.00 88 1015.8
20260503051614 2 266 0.0 0.0 0.00 0.00 0.00 89 1016.1
20260503051112 2 266 0.0 0.0 0.00 0.00 0.00 89 1016.0
20260503050608 2 266 0.0 0.0 0.00 0.00 0.00 89 1016.0
20260503050105 2 266 0.0 0.0 0.00 0.00 0.00 89 1016.2
20260503045602 2 266 0.0 0.0 0.00 0.00 0.00 88 1016.2
20260503045059 2 266 0.0 0.0 0.00 0.00 0.00 88 1016.0
20260503044555 2 266 0.0 0.0 0.00 0.00 0.00 87 1016.2
20260503044053 2 266 0.0 0.0 0.00 0.00 0.00 86 1016.3
20260503043549 2 266 0.0 0.0 0.00 0.00 0.00 86 1016.1
20260503043046 2 266 0.0 0.0 0.00 0.00 0.00 85 1016.3
20260503042543 2 266 0.0 0.0 0.00 0.00 0.00 84 1015.9
20260503042039 2 266 0.0 0.0 0.00 0.00 0.00 83 1016.2
20260503041536 3 266 0.0 0.0 0.00 0.00 0.00 81 1016.0
20260503041034 2 266 0.0 0.0 0.00 0.00 0.00 76 1016.4
20260503040531 3 266 0.0 0.0 0.00 0.00 0.00 70 1016.3
20260503040028 3 266 0.0 0.0 0.00 0.00 0.00 70 1016.3
20260503035525 3 266 0.0 3.2 0.00 0.00 0.00 68 1016.0
20260503035022 3 266 3.2 3.2 0.00 0.00 0.00 69 1016.3
20260503034520 3 266 3.2 3.2 0.00 0.00 0.00 74 1016.2
20260503034016 3 265 0.0 3.2 0.00 0.00 0.00 77 1016.3
20260503033514 3 265 0.0 0.0 0.00 0.00 0.00 75 1016.3
20260503033012 3 265 0.0 0.0 0.00 0.00 0.00 75 1016.4
20260503032510 3 265 0.0 0.0 0.00 0.00 0.00 75 1016.3
20260503032008 3 266 0.0 6.4 0.00 0.00 0.00 74 1016.2
20260503031505 3 265 0.0 0.0 0.00 0.00 0.00 75 1016.2
20260503031002 3 265 0.0 3.2 0.00 0.00 0.00 73 1016.3
20260503030458 3 265 0.0 0.0 0.00 0.00 0.00 74 1016.1
20260503025955 3 265 3.2 3.2 0.00 0.00 0.00 76 1016.4
20260503025452 3 265 0.0 0.0 0.00 0.00 0.00 74 1016.4
20260503024949 3 265 0.0 0.0 0.00 0.00 0.00 73 1016.5
20260503024445 3 265 0.0 0.0 0.00 0.00 0.00 72 1016.5
20260503023943 3 265 0.0 0.0 0.00 0.00 0.00 73 1016.3
20260503023440 3 265 0.0 0.0 0.00 0.00 0.00 73 1016.5
20260503022937 4 265 0.0 3.2 0.00 0.00 0.00 72 1016.5
20260503022432 4 265 0.0 3.2 0.00 0.00 0.00 73 1016.3
20260503021928 5 265 0.0 3.2 0.00 0.00 0.00 69 1016.4
20260503021424 4 265 3.2 3.2 0.00 0.00 0.00 67 1016.4
20260503020922 4 264 0.0 3.2 0.00 0.00 0.00 69 1016.3
20260503020419 5 264 0.0 3.2 0.00 0.00 0.00 70 1016.5
20260503015915 5 264 1.6 6.4 0.00 0.00 0.00 70 1016.3
20260503015413 5 263 0.0 0.0 0.00 0.00 0.00 69 1016.3
20260503014908 5 263 0.0 0.0 0.00 0.00 0.00 70 1016.3
20260503014406 5 263 0.0 0.0 0.00 0.00 0.00 69 1016.2
20260503013904 5 263 0.0 0.0 0.00 0.00 0.00 65 1016.2
20260503013400 5 263 0.0 3.2 0.00 0.00 0.00 61 1016.0
20260503012857 5 261 0.0 0.0 0.00 0.00 0.00 59 1016.0
20260503012355 6 262 0.0 0.0 0.00 0.00 0.00 58 1016.3
20260503011852 6 260 0.0 6.4 0.00 0.00 0.00 57 1016.2
20260503011349 6 259 0.0 3.2 0.00 0.00 0.00 57 1016.2
20260503010845 6 258 0.0 0.0 0.00 0.00 0.00 55 1016.2
20260503010342 6 260 0.0 3.2 0.00 0.00 0.00 56 1016.2
20260503005839 6 257 0.0 0.0 0.00 0.00 0.00 55 1016.0
20260503005337 7 260 0.0 0.0 0.00 0.00 0.00 53 1016.2
20260503004832 7 260 0.0 6.4 0.00 0.00 0.00 53 1016.1
20260503004330 7 259 1.6 8.0 0.00 0.00 0.00 51 1016.0
20260503003828 7 271 4.8 8.0 0.00 0.00 0.00 52 1016.0
20260503003324 7 246 1.6 3.2 0.00 0.00 0.00 51 1016.1
20260503002821 7 286 4.8 6.4 0.00 0.00 0.00 51 1015.9
20260503002318 7 287 4.8 8.0 0.00 0.00 0.00 51 1015.9
20260503001815 8 262 4.8 11.3 0.00 0.00 0.00 51 1015.9
20260503001311 8 264 3.2 6.4 0.00 0.00 0.00 51 1015.8
20260503000809 8 302 6.4 11.3 0.00 0.00 0.00 51 1015.7
20260503000306 8 315 3.2 8.0 0.00 0.00 0.00 52 1015.9
20260502235803 8 243 0.0 8.0 0.00 0.00 0.00 50 1015.7
20260502235300 8 294 1.6 14.5 0.00 0.00 0.00 50 1015.8
20260502234757 8 281 6.4 8.0 0.00 0.00 0.00 50 1015.8
20260502234254 8 266 6.4 8.0 0.00 0.00 0.00 49 1015.9
20260502233750 8 270 3.2 20.9 0.00 0.00 0.00 49 1015.6
20260502233247 8 266 9.7 14.5 0.00 0.00 0.00 49 1015.6
20260502232743 8 298 6.4 8.0 0.00 0.00 0.00 49 1015.7
20260502232240 9 335 3.2 8.0 0.00 0.00 0.00 50 1015.9
20260502231736 10 263 17.7 24.1 0.00 0.00 0.00 46 1015.7
20260502231234 10 304 6.4 8.0 0.00 0.00 0.00 48 1015.8
20260502230733 10 237 3.2 6.4 0.00 0.00 0.00 49 1015.8
20260502230231 9 265 3.2 6.4 0.00 0.00 0.00 51 1015.8
20260502225727 9 259 3.2 20.9 0.00 0.00 0.00 51 1015.8
20260502225224 10 251 4.8 8.0 0.00 0.00 0.00 51 1015.7
20260502224720 10 359 8.0 17.7 0.00 0.00 0.00 51 1016.0
20260502224217 10 324 3.2 8.0 0.00 0.00 0.00 47 1015.8
20260502223714 10 317 0.0 3.2 0.00 0.00 0.00 49 1015.9
20260502223212 10 343 3.2 14.5 0.00 0.00 0.00 51 1015.8
20260502222710 10 241 12.9 17.7 0.00 0.00 0.00 48 1015.8
20260502222206 10 356 9.7 17.7 0.00 0.00 0.00 47 1016.0
20260502221702 10 296 3.2 6.4 0.00 0.00 0.00 48 1016.0
20260502221159 10 323 4.8 11.3 0.00 0.00 0.00 48 1016.2
20260502220655 9 339 8.0 11.3 0.00 0.00 0.00 50 1015.9
20260502220152 10 0 8.0 17.7 0.00 0.00 0.00 55 1015.9
20260502215649 10 351 8.0 11.3 0.00 0.00 0.00 51 1015.9
20260502215145 10 284 3.2 6.4 0.00 0.00 0.00 51 1015.9
20260502214642 9 218 0.0 3.2 0.00 0.00 0.00 54 1016.1
20260502214134 9 263 6.4 8.0 0.00 0.00 0.00 52 1016.2
20260502213631 10 261 0.0 3.2 0.00 0.00 0.00 51 1016.2
20260502213128 9 347 3.2 11.3 0.00 0.00 0.00 59 1015.9
20260502212627 8 328 8.0 14.5 0.00 0.00 0.00 57 1016.0
20260502212125 9 338 1.6 8.0 0.00 0.00 0.00 57 1015.9
20260502211620 9 349 4.8 6.4 0.00 0.00 0.00 53 1016.2
20260502211117 9 348 3.2 6.4 0.00 0.00 0.00 55 1016.2
20260502210615 8 359 8.0 14.5 0.00 0.00 0.00 52 1016.2
20260502210112 9 290 8.0 11.3 0.00 0.00 0.00 52 1016.1
20260502205608 10 306 4.8 6.4 0.00 0.00 0.00 52 1016.2
20260502205106 9 244 3.2 14.5 0.00 0.00 0.00 52 1016.3
20260502204602 8 309 6.4 8.0 0.00 0.00 0.00 55 1016.2
20260502204100 8 342 6.4 11.3 0.00 0.00 0.00 52 1016.3